Bay City, WI

4:47 AM CST on February 09, 2016 (GMT -0600)
Red Wing Municipal

Weather History for KRGK - April, 2014

Change the Weather History Date:

Tuesday, April 1, 2014

  Actual Average Record
Temperature  
Mean Temperature 30 °F -  
Max Temperature 37 °F 48 °F 80 °F (2015)
Min Temperature 23 °F 29 °F 19 °F (2001)
Degree Days  
Heating Degree Days 35    
Moisture  
Dew Point 23 °F    
Average Humidity 76    
Maximum Humidity 93    
Minimum Humidity 56    
Precipitation  
Precipitation 0.00 in - - ()
Sea Level Pressure  
Sea Level Pressure 29.82 in    
Wind  
Wind Speed 15 mph (West)    
Max Wind Speed 22 mph    
Max Gust Speed 31 mph    
Visibility 8 miles    
Events Snow    
Averages and records for this station are not official NWS values.
T = Trace of Precipitation, MM = Missing Value Source: NWS Daily Summary

Daily Weather History Graph

Daily Weather History Graph

Search for Another Location

Airport or City:

Trip Planner

Search our weather history database for the weather conditions in past years. The results will help you decide how hot, cold, wet, or windy it might be!

Date:

Astronomy

Apr. 01, 2014 Rise Set
Actual Time 6:50 AM CDT 7:37 PM CDT
Civil Twilight 6:21 AM CDT 8:06 PM CDT
Nautical Twilight 5:46 AM CDT 8:42 PM CDT
Astronomical Twilight 5:10 AM CDT 9:18 PM CDT
Moon 7:49 AM CDT (4/1) 10:06 PM CDT (4/1)
Length of Visible Light 13h 45m
Length of Day
12h 46m
Waxing Crescent, 5% of the Moon is Illuminated
Apr 1
Waxing Crescent
Apr 7
First Quarter
Apr 15
Full
Apr 22
Last Quarter
Apr 29
New

Hourly Weather History & Observations

Time (CDT) Temp. Windchill Dew Point Humidity Pressure Visibility Wind Dir Wind Speed Gust Speed Precip Events Conditions
12:15 AM 32.0 °F 20.8 °F 26.6 °F 80% 29.50 in 10.0 mi SW 17.3 mph 24.2 mph N/A   Overcast
12:35 AM 30.2 °F 20.2 °F 26.6 °F 86% 29.51 in 7.0 mi SW 12.7 mph 21.9 mph N/A   Overcast
12:55 AM 30.2 °F 19.8 °F 26.6 °F 86% 29.51 in 5.0 mi SSW 13.8 mph 21.9 mph N/A   Haze
1:15 AM 30.2 °F 20.2 °F 26.6 °F 86% 29.50 in 4.0 mi SW 12.7 mph 21.9 mph N/A   Overcast
1:35 AM 30.2 °F 18.5 °F 26.6 °F 86% 29.50 in 5.0 mi SSW 17.3 mph 23.0 mph N/A   Overcast
1:55 AM 30.2 °F 18.5 °F 26.6 °F 86% 29.50 in 5.0 mi SW 17.3 mph 24.2 mph N/A   Overcast
2:14 AM 30.2 °F 18.1 °F 26.6 °F 86% 29.50 in 7.0 mi SW 18.4 mph 27.6 mph N/A   Overcast
2:35 AM 28.4 °F 17.0 °F 24.8 °F 86% 29.51 in 4.0 mi SW 15.0 mph 23.0 mph N/A   Overcast
2:55 AM 28.4 °F 16.2 °F 24.8 °F 86% 29.51 in 10.0 mi SW 17.3 mph 25.3 mph N/A   Overcast
3:15 AM 28.4 °F 16.6 °F 24.8 °F 86% 29.50 in 10.0 mi SSW 16.1 mph 21.9 mph N/A   Overcast
3:35 AM 28.4 °F 19.1 °F 24.8 °F 86% 29.50 in 5.0 mi SW 10.4 mph 16.1 mph N/A   Overcast
3:55 AM 30.2 °F 22.6 °F 26.6 °F 86% 29.50 in 2.5 mi SW 8.1 mph - N/A   Overcast
4:14 AM 30.2 °F 20.8 °F 28.4 °F 93% 29.50 in 2.5 mi West 11.5 mph - N/A   Overcast
4:35 AM 30.2 °F 18.9 °F 28.4 °F 93% 29.50 in 3.0 mi West 16.1 mph 20.7 mph N/A   Overcast
4:55 AM 30.2 °F 18.9 °F 28.4 °F 93% 29.52 in 3.0 mi West 16.1 mph 20.7 mph N/A   Overcast
5:15 AM 30.2 °F 18.5 °F 28.4 °F 93% 29.55 in 2.5 mi WNW 17.3 mph 23.0 mph N/A   Overcast
5:35 AM 28.4 °F 15.8 °F 26.6 °F 93% 29.58 in 2.5 mi WNW 18.4 mph 27.6 mph N/A   Overcast
5:55 AM 26.6 °F 15.7 °F 24.8 °F 93% 29.59 in 10.0 mi WNW 12.7 mph - N/A   Overcast
6:14 AM 26.6 °F 14.7 °F 23.0 °F 86% 29.62 in 10.0 mi WNW 15.0 mph 24.2 mph N/A   Overcast
6:35 AM 26.6 °F 14.7 °F 21.2 °F 80% 29.64 in 10.0 mi WNW 15.0 mph 20.7 mph N/A   Overcast
6:55 AM 24.8 °F 10.7 °F 21.2 °F 86% 29.66 in 7.0 mi WNW 19.6 mph 25.3 mph N/A   Overcast
7:15 AM 24.8 °F 12.4 °F 19.4 °F 80% 29.68 in 10.0 mi WNW 15.0 mph 26.5 mph N/A   Overcast
7:35 AM 24.8 °F 10.0 °F 19.4 °F 80% 29.70 in 10.0 mi WNW 21.9 mph 27.6 mph N/A   Overcast
7:55 AM 24.8 °F 10.7 °F 17.6 °F 74% 29.72 in 10.0 mi NW 19.6 mph 28.8 mph N/A   Overcast
8:15 AM 24.8 °F 11.1 °F 17.6 °F 74% 29.73 in 10.0 mi WNW 18.4 mph 27.6 mph N/A   Overcast
8:35 AM 23.0 °F 9.2 °F 17.6 °F 80% 29.74 in 4.0 mi NW 17.3 mph 26.5 mph N/A Snow Light Snow
8:55 AM 23.0 °F 9.2 °F 17.6 °F 80% 29.75 in 2.5 mi WNW 17.3 mph 25.3 mph N/A Snow Light Snow
9:15 AM 23.0 °F 10.1 °F 17.6 °F 80% 29.76 in 1.5 mi WNW 15.0 mph 23.0 mph N/A Snow Light Snow
9:35 AM 23.0 °F 8.0 °F 15.8 °F 74% 29.78 in 7.0 mi NW 20.7 mph 31.1 mph N/A   Overcast
9:55 AM 23.0 °F 10.1 °F 15.8 °F 74% 29.80 in 5.0 mi NW 15.0 mph 24.2 mph N/A Snow Light Snow
10:15 AM 23.0 °F 12.4 °F 17.6 °F 80% 29.82 in 1.0 mi WNW 10.4 mph 24.2 mph N/A Snow Light Snow
10:35 AM 24.8 °F 11.1 °F 19.4 °F 80% 29.83 in 0.8 mi WNW 18.4 mph 23.0 mph N/A Snow Light Snow
10:55 AM 24.8 °F 11.5 °F 17.6 °F 74% 29.84 in 5.0 mi WNW 17.3 mph 24.2 mph N/A   Haze
11:15 AM 26.6 °F 13.4 °F 17.6 °F 69% 29.86 in 7.0 mi WNW 18.4 mph 29.9 mph N/A   Overcast
11:35 AM 26.6 °F 13.1 °F 17.6 °F 69% 29.88 in 10.0 mi WNW 19.6 mph 27.6 mph N/A   Overcast
11:55 AM 26.6 °F 14.3 °F 17.6 °F 69% 29.89 in 10.0 mi WNW 16.1 mph 24.2 mph N/A   Overcast
12:15 PM 28.4 °F 15.4 °F 19.4 °F 69% 29.90 in 10.0 mi West 19.6 mph 27.6 mph N/A   Mostly Cloudy
12:35 PM 30.2 °F 18.5 °F 19.4 °F 64% 29.91 in 10.0 mi West 17.3 mph 28.8 mph N/A   Mostly Cloudy
12:55 PM 30.2 °F 19.3 °F 19.4 °F 64% 29.90 in 10.0 mi WNW 15.0 mph 25.3 mph N/A   Mostly Cloudy
1:15 PM 32.0 °F 20.8 °F 19.4 °F 60% 29.90 in 10.0 mi WNW 17.3 mph 26.5 mph N/A   Scattered Clouds
1:35 PM 33.8 °F 23.9 °F 19.4 °F 56% 29.91 in 7.0 mi WNW 15.0 mph 21.9 mph N/A   Scattered Clouds
1:55 PM 33.8 °F 24.3 °F 19.4 °F 56% 29.91 in 10.0 mi WNW 13.8 mph 24.2 mph N/A   Scattered Clouds
2:15 PM 35.6 °F 25.2 °F 21.2 °F 56% 29.92 in 10.0 mi West 18.4 mph 25.3 mph N/A   Scattered Clouds
2:35 PM 35.6 °F 25.9 °F 21.2 °F 56% 29.92 in 10.0 mi West 16.1 mph 23.0 mph N/A   Scattered Clouds
2:55 PM 35.6 °F 25.5 °F 21.2 °F 56% 29.93 in 10.0 mi West 17.3 mph 23.0 mph N/A   Scattered Clouds
3:15 PM 37.4 °F 28.2 °F 23.0 °F 56% 29.94 in 10.0 mi West 16.1 mph 23.0 mph N/A   Mostly Cloudy
3:35 PM 35.6 °F 26.2 °F 24.8 °F 65% 29.94 in 10.0 mi West 15.0 mph 20.7 mph N/A   Mostly Cloudy
3:55 PM 35.6 °F 27.1 °F 23.0 °F 60% 29.95 in 10.0 mi West 12.7 mph 24.2 mph N/A   Mostly Cloudy
4:15 PM 35.6 °F 25.2 °F 23.0 °F 60% 29.95 in 10.0 mi West 18.4 mph 24.2 mph N/A   Overcast
4:34 PM 37.4 °F 27.8 °F 24.8 °F 60% 29.95 in 10.0 mi West 17.3 mph 23.0 mph N/A   Mostly Cloudy
4:55 PM 37.4 °F 27.5 °F 24.8 °F 60% 29.96 in 10.0 mi West 18.4 mph 21.9 mph N/A   Mostly Cloudy
5:15 PM 37.4 °F 28.5 °F 24.8 °F 60% 29.96 in 10.0 mi West 15.0 mph 21.9 mph N/A   Scattered Clouds
5:34 PM 37.4 °F 28.5 °F 24.8 °F 60% 29.97 in 10.0 mi West 15.0 mph 19.6 mph N/A   Scattered Clouds
5:55 PM 37.4 °F 28.9 °F 24.8 °F 60% 29.97 in 10.0 mi West 13.8 mph - N/A   Clear
6:15 PM 37.4 °F 30.3 °F 24.8 °F 60% 29.99 in 10.0 mi WNW 10.4 mph 18.4 mph N/A   Scattered Clouds
6:35 PM 35.6 °F 27.5 °F 24.8 °F 65% 30.00 in 10.0 mi West 11.5 mph - N/A   Scattered Clouds
6:55 PM 35.6 °F 29.2 °F 24.8 °F 65% 30.01 in 10.0 mi West 8.1 mph - N/A   Clear
7:15 PM 35.6 °F 28.0 °F 24.8 °F 65% 30.02 in 10.0 mi West 10.4 mph - N/A   Clear
7:35 PM 33.8 °F 27.0 °F 24.8 °F 70% 30.04 in 10.0 mi West 8.1 mph - N/A   Clear
7:55 PM 33.8 °F 27.0 °F 26.6 °F 75% 30.04 in 10.0 mi West 8.1 mph - N/A   Clear
8:15 PM 33.8 °F 27.0 °F 26.6 °F 75% 30.05 in 10.0 mi West 8.1 mph - N/A   Clear
8:35 PM 32.0 °F 24.2 °F 26.6 °F 80% 30.05 in 10.0 mi West 9.2 mph - N/A   Clear
8:55 PM 32.0 °F 26.4 °F 26.6 °F 80% 30.06 in 10.0 mi West 5.8 mph - N/A   Clear
9:15 PM 30.2 °F 23.4 °F 26.6 °F 86% 30.06 in 10.0 mi West 6.9 mph - N/A   Clear
9:35 PM 30.2 °F 22.6 °F 26.6 °F 86% 30.07 in 10.0 mi West 8.1 mph - N/A   Clear
9:55 PM 30.2 °F 23.4 °F 26.6 °F 86% 30.07 in 10.0 mi West 6.9 mph - N/A   Clear
10:15 PM 30.2 °F 23.4 °F 26.6 °F 86% 30.08 in 10.0 mi West 6.9 mph - N/A   Clear
10:35 PM 30.2 °F 26.7 °F 26.6 °F 86% 30.09 in 10.0 mi WNW 3.5 mph - N/A   Clear
10:55 PM 30.2 °F - 24.8 °F 80% 30.09 in 10.0 mi Calm Calm - N/A   Clear
11:15 PM 28.4 °F 24.6 °F 24.8 °F 86% 30.09 in 10.0 mi WNW 3.5 mph - N/A   Clear
11:35 PM 28.4 °F 24.6 °F 24.8 °F 86% 30.10 in 10.0 mi NW 3.5 mph - N/A   Clear
11:55 PM 28.4 °F 23.3 °F 24.8 °F 86% 30.10 in 10.0 mi WNW 4.6 mph - N/A   Clear